STARLINK-32321

Last updated on Mon Oct 14 2024 00:02:03 GMT+0000 (Coordinated Universal Time)

1 61065U 24164R 24287.51552245 -.00000582 00000+0 -45757-5 0 9996 2 61065 53.1608 319.1907 0001497 73.1359 286.9810 15.39616703 4933
UTC large
Height (km)
Speed (km/s)
/
Latitude / Longitude
Inclination (degrees)
Orbital Period (minutes)
Azimuth
Elevation
Range (km)
Doppler Factor

Next 0 passes for location: London (51.5072 / 0.1276)

Sorry there are no passes over London.